Regional Weather Roundup
Issued by NWS Sterling, VA

Home | Current Version | Previous Version | Graphics & Text | Print | Product List | Glossary On
Versions: 1 2 3 4 5 6 7 8 9 10 11 12 13 14 15 16 17 18 19 20 21 22 23 24 25 26 27 28 29 30 31 32 33 34 35 36 37 38 39 40 41 42 43 44 45 46 47 48 49 50
000
ASUS41 KLWX 040210
RWRLWX

REGIONAL WEATHER ROUNDUP
NATIONAL WEATHER SERVICE BALTIMORE MD/WASHINGTON DC
1000 PM EDT THU SEP 03 2015

Note: "FAIR" indicates few or no clouds below 12,000 feet
with no significant weather and/or obstructions to visibility.
 TC=TEMPERATURE CELSIUS

 * =Non NWS site. Station does not report precipitation (e.g. rain,
    snow, etc.), thunder, or fog.

DCZ001-MDZ009-015-VAZ040>042-051-053>054-040300-
WASHINGTON METRO

CITY           SKY/WX    TMP DP  RH WIND       PRES   REMARKS
WASHINGTON NAT CLOUDY    80  72  76 S5        29.90R
DULLES         CLOUDY    81  67  62 NW5       29.92R
ANDREWS AFB    MOCLDY    75  72  89 SW2       29.90R
FT BELVOIR     MOCLDY    75  69  82 CALM      29.90R
QUANTICO       PTCLDY    79  72  79 NW5       29.91R
COLLEGE PARK*  MOCLDY    77  72  83 CALM      29.89R
LEESBURG*      CLOUDY    81  72  74 SW10      29.93R
MANASSAS*      PTCLDY    79  72  78 CALM      29.91R
GAITHERSBURG*  MOCLDY    75  66  73 CALM      29.96R

$$

MDZ006>007-011-014-040300-
BALTIMORE METRO

CITY           SKY/WX    TMP DP  RH WIND       PRES   REMARKS
BWI AIRPORT    MOCLDY    78  68  71 CALM      29.90R
MD SCIENCE CTR   N/A     85  69  58 MISG      29.89R
MARTIN STATE   PTCLDY    79  75  89 CALM      29.90R
ANNAPOLIS      PTCLDY    80  75  84 CALM      29.89R
FORT MEADE*    MOCLDY    70  68  94 CALM      29.93R

$$

MDZ012-015-019>023-040300-
MARYLAND EASTERN SHORE

CITY           SKY/WX    TMP DP  RH WIND       PRES   REMARKS
OCEAN CITY     CLEAR     77  71  82 W5        29.88R
SALISBURY      PTCLDY    75  72  90 S3        29.88R
BAY BRIDGE AP*   N/A     81  73  78 W3        29.89R

$$

MDZ017>025-040300-
SOUTHERN MARYLAND

CITY           SKY/WX    TMP DP  RH WIND       PRES   REMARKS
PATUXENT RIVER MOCLDY    74  71  91 W3        29.89R
ST INIGOES     PTCLDY    74  72  93 CALM      29.89R FOG
LEONARDTOWN*   NOT AVBL

$$

MDZ003>005-040300-
NORTH CENTRAL MARYLAND

CITY           SKY/WX    TMP DP  RH WIND       PRES   REMARKS
FREDERICK*     NOT AVBL
HAGERSTOWN APT MOCLDY    80  69  69 CALM      29.93R
WESTMINSTER*   MOCLDY    81  70  69 CALM      29.93S

$$

MDZ501>502-040300-
WESTERN MARYLAND

CITY           SKY/WX    TMP DP  RH WIND       PRES   REMARKS
OAKLAND*       MOCLDY    66  64  94 W3        30.08S
CUMBERLAND*    MOCLDY    75  72  88 CALM      30.00R

$$

VAZ025>031-040300-
SHENANDOAH VALLEY

CITY           SKY/WX    TMP DP  RH WIND       PRES   REMARKS
WINCHESTER*    MOCLDY    72  68  88 CALM      29.94S
FRONT ROYAL*   FAIR      70  68  94 S6        29.94R
LURAY*         FAIR      72  68  88 CALM      29.98R
NEW MARKET*    FAIR      73  69  85 CALM      29.97R
STAUNTON*      RAIN      78  67  68 E6        30.02R
WAYNESBORO*    MOCLDY    76  65  68 N5        30.01R

$$

WVZ021-048>050-054>055-040300-
EASTERN WEST VIRGINIA PANHANDLE

CITY           SKY/WX    TMP DP  RH WIND       PRES   REMARKS
MARTINSBURG    MOCLDY    75  66  73 CALM      29.93R
PETERSBURG*    MOCLDY    70  69  97 CALM      29.99R FOG

$$

VAZ036>039-050-040300-
CENTRAL FOOTHILLS

CITY           SKY/WX    TMP DP  RH WIND       PRES   REMARKS
CHARLOTTESVILL PTCLDY    74  70  87 N3        29.94R
CULPEPER*      LGT RAIN  79  66  64 W9G23     29.93R
ORANGE*        PTCLDY    73  70  88 CALM      29.95R
GORDONSVILLE*  FAIR      73  70  89 CALM      29.93R
WARRENTON*     MOCLDY    78  73  84 CALM      29.92R

$$

VAZ055>057-040300-
NORTH AND CENTRAL PIEDMONT

CITY           SKY/WX    TMP DP  RH WIND       PRES   REMARKS
FREDERICKSBRG* PTCLDY    76  70  82 W3        29.90R
STAFFORD*      PTCLDY    73  69  88 CALM      29.95R

$$

NCZ024-NYZ072-PAZ021-071-VAZ022-071-040300-
OTHER REGIONAL OBSERVATIONS

CITY           SKY/WX    TMP DP  RH WIND       PRES   REMARKS
NEW YORK CITY  PTCLDY    83  65  54 CALM      29.91R
PHILADELPHIA   MOCLDY    83  69  62 S7        29.89R
PITTSBURGH     CLOUDY    74  65  73 SW6       29.98R
ROANOKE        PTCLDY    78  65  63 NW5       30.00R
RICHMOND       PTCLDY    79  72  79 CALM      29.90R
RALEIGH        PTCLDY    75  68  78 CALM      29.93R

$$

ANZ530>537-040300-
MARINE OBSERVATIONS

STATION/POSITION TIME  TEMP    WIND        PRES
                       AIR SEA DIR/SP/G
                 (UTC) (F)     (DEG/KT/KT) (MB)
THOMAS PT LIGHT  NOT AVBL
BALT KEY BRIDGE  0100   83     250/  5/  5 1011.7R
COVE POINT       0100   82     320/  3/  3 1012.3R
LEWISETTA        0100   81 83  230/  2/  2 1011.3R
SOLOMONS ISLAND  0100      82                N/A
PINEY POINT      0105           CALM  /  1   N/A

$$



USA.gov is the U.S. government's official web portal to all federal, state and local government web resources and services.